Latest Coastal Weather Observations for Low Head

IDT60701

Issued at 7:45 pm EDT Sunday 26 October 2014 (issued every 10 minutes, with the page automatically refreshed every 10 minutes)

About coastal observations | Map of coastal stations | Coastal observations for TAS | Marine services | Other Formats
Station Details ID: 091293 Name: LOW HEAD Lat: -41.05 Lon: 146.79 Height: 3.0 m
Data from the previous 72 hours. | See also: Recent months at Low Head
Date/Time
EDT
Temp

°C
Wind Pressure Rain
since 9am
mm
Weather Cloud Vis
km
Sea
Height
m
Swell
Dir
 
Speed
knots
Gust
knots
hPa Trend Height
m
Period
s
Dir
26/07:30pm 14.3 NNE 8 10 1010.5 - 0.6 - - - - - - -
26/07:00pm 14.3 NNE 7 8 1010.6 - 0.6 - - - - - - -
26/06:30pm 14.9 N 7 9 1011.1 - 0.6 - - - - - - -
26/06:00pm 15.2 N 10 13 1011.3 - 0.6 - - - - - - -
26/05:30pm 15.2 N 10 11 1011.0 - 0.6 - - - - - - -
26/05:00pm 15.4 N 9 11 1010.9 - 0.6 - - - - - - -
26/04:30pm 15.2 N 9 11 1010.9 - 0.6 - - - - - - -
26/04:00pm 16.5 N 8 10 1011.2 - 0.6 - - - - - - -
26/03:30pm 17.0 N 8 8 1011.5 - 0.6 - - - - - - -
26/03:00pm 16.6 NNW 7 7 1011.7 S 0.6 Fine Mostly clear 25 <0.1 0.3 5 -
26/02:30pm 16.6 NNW 8 8 1011.9 - 0.6 - - - - - - -
26/02:00pm 16.5 NNW 8 9 1012.0 - 0.6 - - - - - - -
26/01:30pm 16.7 N 7 8 1012.2 - 0.6 - - - - - - -
26/01:00pm 15.9 N 6 7 1012.4 - 0.6 - - - - - - -
26/12:30pm 14.6 NNE 7 8 1012.6 - 0.6 - - - - - - -
26/12:00pm 14.4 NNE 4 7 1012.8 - 0.6 - - - - - - -
26/11:30am 14.6 SE 3 5 1013.0 - 0.6 - - - - - - -
26/11:00am 13.6 S 5 8 1013.3 - 0.6 - - - - - - -
26/10:30am 13.7 S 6 8 1013.3 - 0.2 - - - - - - -
26/10:00am 13.9 SE 5 7 1013.1 - 0.0 - - - - - - -
26/09:30am 13.4 SSE 6 8 1013.1 - 0.0 - - - - - - -
26/09:00am 13.2 SSE 7 9 1013.4 R 0.8 Drizzle Cloudy 10 <0.1 0.3 0 -
26/08:30am 13.0 S 8 10 1013.4 - 0.8 - - - - - - -
26/08:00am 12.7 SSE 9 12 1013.1 - 0.8 - - - - - - -
26/07:30am 12.8 S 8 10 1013.2 - 0.6 - - - - - - -
26/07:00am 13.3 CALM 0 0 1012.9 - 0.2 - - - - - - -
26/06:30am 13.0 SSE 3 4 1012.6 - 0.2 - - - - - - -
26/06:00am 13.0 SE 3 4 1012.6 S 0.2 Fine Cloudy 20 <0.1 0.0 0 -
26/05:30am 13.5 E 7 8 1012.8 - 0.2 - - - - - - -
26/05:00am 13.6 E 9 11 1012.9 - 0.2 - - - - - - -
26/04:30am 13.7 E 10 13 1012.9 - 0.2 - - - - - - -
26/04:00am 13.9 E 12 15 1012.8 - 0.2 - - - - - - -
26/03:30am 13.8 E 14 16 1012.8 - 0.2 - - - - - - -
26/03:00am 14.1 ENE 17 21 1012.6 - 0.2 - - - - - - -
26/02:30am 13.9 E 15 19 1013.6 - 0.2 - - - - - - -
26/02:00am 13.8 E 11 15 1014.5 - 0.2 - - - - - - -
26/01:30am 14.0 E 14 18 1015.1 - 0.2 - - - - - - -
26/01:00am 14.3 ENE 15 19 1015.3 - 0.2 - - - - - - -
26/12:30am 14.1 ENE 15 19 1015.6 - 0.2 - - - - - - -
26/12:00am 14.3 ENE 17 20 1015.8 - 0.2 - - - - - - -
 
Date/Time
EDT
Temp

°C
Wind Pressure Rain
since 9am
mm
Weather Cloud Vis
km
Sea
Height
m
Swell
Dir
 
Speed
knots
Gust
knots
hPa Trend Height
m
Period
s
Dir
25/11:30pm 14.5 ENE 18 21 1015.7 - 0.2 - - - - - - -
25/11:00pm 14.6 ENE 19 21 1015.9 - 0.2 - - - - - - -
25/10:30pm 14.7 ENE 18 21 1015.8 - 0.2 - - - - - - -
25/10:00pm 14.8 NE 20 22 1015.9 - 0.2 - - - - - - -
25/09:30pm 14.8 NE 17 20 1016.2 - 0.2 - - - - - - -
25/09:00pm 14.8 NE 19 21 1016.3 - 0.2 - - - - - - -
25/08:30pm 14.9 NE 19 22 1016.0 - 0.2 - - - - - - -
25/08:00pm 14.9 NE 19 22 1015.8 - 0.2 - - - - - - -
25/07:30pm 15.0 NE 19 21 1015.5 - 0.2 - - - - - - -
25/07:00pm 15.1 NE 17 20 1015.0 - 0.2 - - - - - - -
25/06:30pm 15.3 ENE 17 20 1014.7 - 0.2 - - - - - - -
25/06:00pm 15.5 ENE 15 18 1014.4 - 0.2 - - - - - - -
25/05:30pm 15.6 NE 15 17 1014.2 - 0.2 - - - - - - -
25/05:00pm 16.2 NE 8 11 1014.6 - 0.2 - - - - - - -
25/04:30pm 15.8 NE 1 3 1014.5 - 0.2 - - - - - - -
25/04:00pm 16.1 NE 5 6 1014.3 - 0.2 - - - - - - -
25/03:30pm 14.8 NNE 14 17 1014.5 - 0.2 - - - - - - -
25/03:00pm 15.7 NE 13 15 1014.2 R 0.2 Fine Mostly cloudy 25 1 0.5 3 NW
25/02:30pm 15.7 NE 13 15 1014.0 - 0.2 - - - - - - -
25/02:00pm 15.8 ENE 12 14 1014.4 - 0.2 - - - - - - -
25/01:30pm 16.3 NE 13 15 1014.3 - 0.2 - - - - - - -
25/01:00pm 16.6 NE 11 12 1014.5 - 0.2 - - - - - - -
25/12:30pm 16.2 NNE 8 10 1014.7 - 0.2 - - - - - - -
25/12:00pm 17.6 N 6 7 1014.8 - 0.0 - - - - - - -
25/11:30am 17.0 N 7 8 1014.5 - 0.0 - - - - - - -
25/11:00am 17.1 N 7 11 1014.7 - 0.0 - - - - - - -
25/10:30am 17.0 SSW 9 11 1014.5 - 0.0 - - - - - - -
25/10:00am 15.8 S 8 8 1014.6 - 0.0 - - - - - - -
25/09:30am 15.7 S 6 7 1014.3 - 0.0 - - - - - - -
25/09:00am 14.7 S 5 6 1014.1 R 0.0 Fine Partly cloudy 25 1 0.5 3 NW
25/08:30am 14.2 S 4 5 1014.1 - 0.0 - - - - - - -
25/08:00am 13.6 SSW 5 8 1014.0 - 0.0 - - - - - - -
25/07:30am 13.9 SW 9 10 1013.7 - 0.0 - - - - - - -
25/07:00am 13.7 WSW 9 11 1013.2 - 0.0 - - - - - - -
25/06:30am 13.6 WSW 9 10 1012.3 - 0.0 - - - - - - -
25/06:00am 13.8 WSW 10 13 1012.0 R 0.0 Fine Mostly clear 25 <0.5 0.5 3 NW
25/05:30am 13.8 WSW 9 11 1011.7 - 0.0 - - - - - - -
25/05:00am 14.0 WSW 15 17 1011.1 - 0.0 - - - - - - -
25/04:30am 14.1 W 16 19 1010.7 - 0.0 - - - - - - -
25/04:00am 14.0 W 17 20 1010.5 - 0.0 - - - - - - -
25/03:30am 14.3 W 18 21 1010.5 - 0.0 - - - - - - -
25/03:00am 14.2 W 20 22 1010.2 - 0.0 - - - - - - -
25/02:30am 14.2 W 21 24 1010.3 - 0.0 - - - - - - -
25/02:00am 14.1 W 14 17 1010.3 - 0.0 - - - - - - -
25/01:30am 13.9 W 11 14 1010.5 - 0.0 - - - - - - -
25/01:00am 14.0 W 13 15 1010.7 - 0.0 - - - - - - -
25/12:30am 14.2 W 15 18 1010.7 - 0.0 - - - - - - -
25/12:00am 14.3 W 13 15 1010.6 - 0.0 - - - - - - -
 
Date/Time
EDT
Temp

°C
Wind Pressure Rain
since 9am
mm
Weather Cloud Vis
km
Sea
Height
m
Swell
Dir
 
Speed
knots
Gust
knots
hPa Trend Height
m
Period
s
Dir
24/11:30pm 14.3 WNW 12 15 1010.4 - 0.0 - - - - - - -
24/11:00pm 14.4 W 11 13 1010.2 - 0.0 - - - - - - -
24/10:30pm 14.4 WNW 9 10 1010.4 - 0.0 - - - - - - -
24/10:00pm 14.6 NW 7 8 1010.4 - 0.0 - - - - - - -
24/09:30pm 14.8 N 6 7 1010.4 - 0.0 - - - - - - -
24/09:00pm 14.9 N 7 8 1010.7 - 0.0 - - - - - - -
24/08:30pm 15.1 NNE 9 10 1010.4 - 0.0 - - - - - - -
24/08:00pm 15.4 NE 11 13 1009.6 - 0.0 - - - - - - -
24/07:30pm 15.8 ENE 12 13 1009.3 - 0.0 - - - - - - -
24/07:00pm 16.1 ENE 12 14 1009.2 - 0.0 - - - - - - -
24/06:30pm 16.1 ENE 13 15 1009.5 - 0.0 - - - - - - -
24/06:00pm 16.2 ENE 15 16 1009.6 - 0.0 - - - - - - -
24/05:30pm 16.4 ENE 14 17 1010.0 - 0.0 - - - - - - -
24/05:00pm 16.4 ENE 18 22 1009.7 - 0.0 - - - - - - -
24/04:30pm 16.3 ENE 18 22 1010.3 - 0.0 - - - - - - -
24/04:00pm 16.6 ENE 19 23 1010.6 - 0.0 - - - - - - -
24/03:30pm 16.5 ENE 19 24 1011.1 - 0.0 - - - - - - -
24/03:00pm 16.5 ENE 20 27 1011.4 R 0.0 Fine Cloudy 15 1 1.0 3 NE
24/02:30pm 16.5 E 20 25 1011.9 - 0.0 - - - - - - -
24/02:00pm 16.4 E 20 25 1012.4 - 0.0 - - - - - - -
24/01:30pm 16.3 E 21 25 1012.8 - 0.0 - - - - - - -
24/01:00pm 15.9 E 18 23 1013.5 - 0.0 - - - - - - -
24/12:30pm 15.2 E 12 16 1014.3 - 0.0 - - - - - - -
24/12:00pm 14.9 E 10 14 1015.1 - 0.0 - - - - - - -
24/11:30am 14.8 ESE 11 16 1015.5 - 0.0 - - - - - - -
24/11:00am 13.2 SE 7 13 1016.1 - 0.0 - - - - - - -
24/10:30am 12.3 SE 7 15 1016.5 - 0.0 - - - - - - -
24/10:00am 13.9 E 13 19 1016.8 - 0.0 - - - - - - -
24/09:30am 10.4 SSE 10 13 1017.2 - 0.0 - - - - - - -
24/09:00am 10.4 SSE 12 17 1017.6 F 0.0 Fine Cloudy 25 <0.5 0.5 3 -
24/08:30am 10.1 SSE 12 16 1018.0 - 0.0 - - - - - - -
24/08:00am 9.7 SSE 13 18 1018.3 - 0.0 - - - - - - -
24/07:30am 9.6 SSE 13 17 1018.6 - 0.0 - - - - - - -
24/07:00am 9.4 SSE 14 21 1018.8 - 0.0 - - - - - - -
24/06:30am 9.5 SSE 13 17 1019.3 - 0.0 - - - - - - -
24/06:00am 9.4 SSE 14 19 1019.3 S 0.0 Fine Cloudy 20 <0.5 0.3 3 -
24/05:30am 9.2 SSE 12 16 1019.4 - 0.0 - - - - - - -
24/05:00am 9.3 SSE 11 16 1019.7 - 0.0 - - - - - - -
24/04:30am 9.4 SSE 12 16 1020.0 - 0.0 - - - - - - -
24/04:00am 9.4 SSE 13 16 1020.2 - 0.0 - - - - - - -
24/03:30am 9.5 SSE 12 16 1020.8 - 0.0 - - - - - - -
24/03:00am 9.2 SSE 12 15 1021.3 - 0.0 - - - - - - -
24/02:30am 9.1 SSE 10 13 1022.0 - 0.0 - - - - - - -
24/02:00am 9.2 SSE 11 14 1022.1 - 0.0 - - - - - - -
24/01:30am 10.0 SE 9 13 1022.4 - 0.0 - - - - - - -
24/01:00am 9.9 SE 7 9 1023.2 - 0.0 - - - - - - -
24/12:30am 10.5 ESE 9 12 1023.4 - 0.0 - - - - - - -
24/12:00am 12.2 E 18 21 1023.7 - 0.0 - - - - - - -
 
Date/Time
EDT
Temp

°C
Wind Pressure Rain
since 9am
mm
Weather Cloud Vis
km
Sea
Height
m
Swell
Dir
 
Speed
knots
Gust
knots
hPa Trend Height
m
Period
s
Dir
23/11:30pm 12.2 E 15 20 1023.6 - 0.0 - - - - - - -
23/11:00pm 11.3 E 13 15 1023.8 - 0.0 - - - - - - -
23/10:30pm 11.9 E 14 17 1023.8 - 0.0 - - - - - - -
23/10:00pm 12.2 E 14 17 1023.6 - 0.0 - - - - - - -
23/09:30pm 12.9 ENE 16 18 1023.3 - 0.0 - - - - - - -
23/09:00pm 13.5 ENE 17 20 1023.3 - 0.0 - - - - - - -
23/08:30pm 14.1 ENE 23 26 1022.9 - 0.0 - - - - - - -
23/08:00pm 14.5 ENE 20 25 1022.4 - 0.0 - - - - - - -

Other Formats:

Comma delimited format used in spreadsheet applications
http://www.bom.gov.au/fwo/IDT60701/IDT60701.95964.axf

JavaScript Object Notation format (JSON) in row-major order
http://www.bom.gov.au/fwo/IDT60701/IDT60701.95964.json